Date String (YYYY-MM-DD hh:mm:ss) UTC,Instrument flags,absolute air pressure of the measurement (hPa),sample flow rate (lpm),inlet stack bypass flow (lpm),air temperature of the measurement (°C),ambient temperature measured by the external sensor (°C),aerosol sample conditioner tube jacket temperature (°C),OPC LED temperature (°C),internal box temperature (°C),relative humidity of the measurement (%),span deviation,mass concentration of particles derived from Lorenz-Mie calculation of OPC scattering (μg/m³),mass concentration of particles derived from Lorenz-Mie calculation of OPC scattering (μg/m³),mass concentration of particles derived from Lorenz-Mie calculation of OPC scattering (μg/m³)
DateTimeUTC,F1_M11,P_M11,Q1_M11,Q2_M11,T1_M11,T2_M11,T3_M11,T4_M11,T5_M11,U1_M11,ZSPAN_M11,X0_M11,X2_M11,X1_M11
2023-09-21 23:00:00,SystemResetWarning,0827.2,5.00,000.00,027.8,026.5,000.0,036.1,029.6,16.5,0000.0,0008.07,0003.14,0002.29
2023-09-21 23:01:00,SystemResetWarning,0827.2,5.00,000.00,027.8,026.7,000.0,036.1,029.6,16.5,0000.0,0007.98,0003.10,0002.30
2023-09-21 23:02:00,SystemResetWarning,0827.2,5.01,000.00,027.9,026.9,000.0,036.1,029.7,16.4,0000.0,0007.66,0003.13,0002.30
2023-09-21 23:03:00,SystemResetWarning,0827.2,5.00,000.00,027.9,026.4,000.0,036.1,029.6,16.4,0000.0,0008.37,0003.11,0002.30
2023-09-21 23:04:00,SystemResetWarning,0827.2,4.99,000.00,027.8,024.7,000.0,036.1,029.0,16.6,0000.0,0008.60,0003.12,0002.29
2023-09-21 23:05:00,SystemResetWarning,0827.2,5.01,000.00,027.7,023.9,000.0,036.0,028.9,16.6,0000.0,0008.66,0003.14,0002.31
2023-09-21 23:06:00,SystemResetWarning,0827.2,5.00,000.00,027.6,024.1,000.0,036.0,028.9,16.6,0000.0,0009.71,0003.15,0002.31
2023-09-21 23:07:00,SystemResetWarning,0827.1,5.00,000.00,027.6,024.5,000.0,036.0,029.0,17.3,0000.0,0010.32,0003.17,0002.32
2023-09-21 23:08:00,SystemResetWarning,0827.2,5.01,000.00,027.6,024.9,000.0,036.0,029.1,17.3,0000.0,0010.35,0003.21,0002.33
2023-09-21 23:09:00,SystemResetWarning,0827.2,5.00,000.00,027.6,025.4,000.0,036.0,029.2,17.3,0000.0,0009.78,0003.27,0002.34
2023-09-21 23:10:00,SystemResetWarning,0827.2,4.99,000.00,027.6,025.8,000.0,036.0,029.3,17.4,0000.0,0009.82,0003.28,0002.35
2023-09-21 23:11:00,SystemResetWarning,0827.2,5.00,000.00,027.7,026.1,000.0,036.0,029.4,17.3,0000.0,0010.00,0003.27,0002.35
2023-09-21 23:12:00,SystemResetWarning,0827.2,5.00,000.00,027.7,026.4,000.0,036.0,029.5,17.0,0000.0,0010.49,0003.31,0002.35
2023-09-21 23:13:00,SystemResetWarning,0827.2,5.00,000.00,027.8,026.6,000.0,036.1,029.6,17.5,0000.0,0010.31,0003.29,0002.36
2023-09-21 23:14:00,SystemResetWarning,0827.2,4.99,000.00,027.8,026.8,000.0,036.1,029.7,17.6,0000.0,0010.22,0003.33,0002.38
2023-09-21 23:15:00,SystemResetWarning,0827.2,4.99,000.00,027.9,027.0,000.0,036.1,029.7,17.2,0000.0,0010.47,0003.33,0002.37
2023-09-21 23:16:00,SystemResetWarning,0827.2,5.00,000.00,027.9,026.1,000.0,036.1,029.5,16.8,0000.0,0010.64,0003.31,0002.37
2023-09-21 23:17:00,SystemResetWarning,0827.1,5.00,000.00,027.8,024.4,000.0,036.1,028.9,16.9,0000.0,0010.30,0003.32,0002.39
2023-09-21 23:18:00,SystemResetWarning,0827.2,5.02,000.00,027.7,023.9,000.0,036.0,028.9,17.0,0000.0,0010.43,0003.31,0002.38
2023-09-21 23:19:00,SystemResetWarning,0827.1,5.00,000.00,027.6,024.2,000.0,036.0,029.0,17.3,0000.0,0010.98,0003.32,0002.39
2023-09-21 23:20:00,SystemResetWarning,0827.1,5.00,000.00,027.6,024.6,000.0,036.0,029.0,17.1,0000.0,0011.30,0003.33,0002.41
2023-09-21 23:21:00,SystemResetWarning,0827.2,5.00,000.00,027.6,025.0,000.0,036.0,029.1,16.8,0000.0,0011.08,0003.31,0002.41
2023-09-21 23:22:00,SystemResetWarning,0827.1,4.99,000.00,027.6,025.4,000.0,036.0,029.2,17.2,0000.0,0011.07,0003.33,0002.41
2023-09-21 23:23:00,SystemResetWarning,0827.2,5.00,000.00,027.6,025.8,000.0,036.0,029.3,17.1,0000.0,0010.74,0003.31,0002.39
2023-09-21 23:24:00,SystemResetWarning,0827.2,5.00,000.00,027.7,026.1,000.0,036.0,029.4,16.9,0000.0,0010.82,0003.32,0002.39
2023-09-21 23:25:00,SystemResetWarning,0827.2,5.00,000.00,027.7,026.4,000.0,036.0,029.5,16.9,0000.0,0010.95,0003.32,0002.38
2023-09-21 23:26:00,SystemResetWarning,0827.2,4.99,000.00,027.8,026.6,000.0,036.1,029.6,17.0,0000.0,0010.69,0003.33,0002.39
2023-09-21 23:27:00,SystemResetWarning,0827.2,4.99,000.00,027.8,026.8,000.0,036.1,029.7,16.4,0000.0,0010.34,0003.32,0002.39
2023-09-21 23:28:00,SystemResetWarning,0827.2,5.00,000.00,027.9,027.0,000.0,036.1,029.7,16.4,0000.0,0010.53,0003.33,0002.38
2023-09-21 23:29:00,SystemResetWarning,0827.2,4.99,000.00,027.9,026.7,000.0,036.1,029.7,16.6,0000.0,0010.14,0003.32,0002.38
2023-09-21 23:30:00,SystemResetWarning,0827.2,5.00,000.00,027.9,025.0,000.0,036.1,029.1,16.5,0000.0,0009.69,0003.29,0002.37
2023-09-21 23:31:00,SystemResetWarning,0827.1,5.00,000.00,027.7,024.1,000.0,036.1,028.9,16.8,0000.0,0009.49,0003.25,0002.37
2023-09-21 23:32:00,SystemResetWarning,0827.1,5.01,000.00,027.7,024.2,000.0,036.0,029.0,17.1,0000.0,0009.50,0003.25,0002.37
2023-09-21 23:33:00,SystemResetWarning,0827.1,5.01,000.00,027.6,024.5,000.0,036.0,029.0,17.2,0000.0,0009.56,0003.27,0002.38
2023-09-21 23:34:00,SystemResetWarning,0827.1,5.00,000.00,027.6,024.9,000.0,036.0,029.1,17.2,0000.0,0009.28,0003.27,0002.39
2023-09-21 23:35:00,SystemResetWarning,0827.2,5.00,000.00,027.6,025.3,000.0,036.0,029.2,16.7,0000.0,0009.01,0003.24,0002.39
2023-09-21 23:36:00,SystemResetWarning,0827.1,4.98,000.00,027.7,025.7,000.0,036.0,029.3,16.6,0000.0,0008.58,0003.24,0002.40
2023-09-21 23:37:00,SystemResetWarning,0827.1,5.00,000.00,027.7,026.1,000.0,036.0,029.4,16.9,0000.0,0008.22,0003.26,0002.41
2023-09-21 23:38:00,SystemResetWarning,0827.1,5.00,000.00,027.7,026.4,000.0,036.0,029.5,17.2,0000.0,0008.29,0003.30,0002.44
2023-09-21 23:39:00,SystemResetWarning,0827.1,5.01,000.00,027.8,026.6,000.0,036.1,029.6,16.4,0000.0,0009.09,0003.32,0002.45
2023-09-21 23:40:00,SystemResetWarning,0827.2,5.00,000.00,027.8,026.8,000.0,036.1,029.7,16.7,0000.0,0009.78,0003.36,0002.47
2023-09-21 23:41:00,SystemResetWarning,0827.2,4.99,000.00,027.9,027.0,000.0,036.1,029.7,16.6,0000.0,0009.95,0003.38,0002.49
2023-09-21 23:42:00,SystemResetWarning,0827.1,4.98,000.00,027.9,026.4,000.0,036.1,029.6,16.3,0000.0,0011.21,0003.43,0002.50
2023-09-21 23:43:00,SystemResetWarning,0827.1,5.01,000.00,027.8,024.6,000.0,036.1,029.1,16.9,0000.0,0011.55,0003.46,0002.50
2023-09-21 23:44:00,SystemResetWarning,0827.2,5.02,000.00,027.7,023.9,000.0,036.0,029.0,16.9,0000.0,0011.88,0003.49,0002.51
2023-09-21 23:45:00,SystemResetWarning,0827.1,5.00,000.00,027.7,024.2,000.0,036.0,029.0,16.9,0000.0,0011.93,0003.53,0002.53
2023-09-21 23:46:00,SystemResetWarning,0827.2,5.00,000.00,027.6,024.5,000.0,036.0,029.1,17.2,0000.0,0012.02,0003.56,0002.55
2023-09-21 23:47:00,SystemResetWarning,0827.1,5.00,000.00,027.6,025.0,000.0,036.0,029.1,16.8,0000.0,0012.84,0003.55,0002.54
2023-09-21 23:48:00,SystemResetWarning,0827.2,4.99,000.00,027.6,025.4,000.0,036.0,029.2,16.9,0000.0,0013.99,0003.54,0002.55
2023-09-21 23:49:00,SystemResetWarning,0827.2,5.00,000.00,027.7,025.8,000.0,036.0,029.3,16.9,0000.0,0014.26,0003.49,0002.53
2023-09-21 23:50:00,SystemResetWarning,0827.2,4.99,000.00,027.7,026.1,000.0,036.0,029.4,17.0,0000.0,0013.85,0003.45,0002.52
2023-09-21 23:51:00,SystemResetWarning,0827.2,5.00,000.00,027.8,026.4,000.0,036.0,029.5,16.4,0000.0,0012.69,0003.43,0002.51
2023-09-21 23:52:00,SystemResetWarning,0827.1,5.01,000.00,027.8,026.6,000.0,036.1,029.6,16.7,0000.0,0012.31,0003.42,0002.50
2023-09-21 23:53:00,SystemResetWarning,0827.2,5.00,000.00,027.9,026.8,000.0,036.1,029.7,16.9,0000.0,0011.14,0003.40,0002.48
2023-09-21 23:54:00,SystemResetWarning,0827.1,5.00,000.00,027.9,027.0,000.0,036.1,029.7,17.4,0000.0,0010.86,0003.41,0002.47
2023-09-21 23:55:00,SystemResetWarning,0827.1,4.98,000.00,027.9,026.0,000.0,036.1,029.5,17.7,0000.0,0010.54,0003.41,0002.47
2023-09-21 23:56:00,SystemResetWarning,0827.1,5.01,000.00,027.9,024.9,000.0,036.1,029.3,18.1,0000.0,0010.49,0003.40,0002.47
2023-09-21 23:57:00,SystemResetWarning,0827.1,5.02,000.00,027.8,024.9,000.0,036.1,029.3,18.5,0000.0,0010.55,0003.42,0002.46
2023-09-21 23:58:00,SystemResetWarning,0827.1,4.99,000.00,027.8,025.2,000.0,036.1,029.3,18.4,0000.0,0010.27,0003.45,0002.46
2023-09-21 23:59:00,SystemResetWarning,0827.1,5.00,000.00,027.8,025.5,000.0,036.1,029.4,18.2,0000.0,0008.98,0003.44,0002.46
